Evansville, IN

5:41 PM CST on November 20, 2017 (GMT -0600)
Evansville Regional

Weather History for KEVV - July, 2013

Change the Weather History Date:

Saturday, July 27, 2013

  Actual Average Record
Temperature  
Mean Temperature 70 °F 78 °F  
Max Temperature 80 °F 88 °F 107 °F (1930)
Min Temperature 59 °F 67 °F 49 °F (1962)
Degree Days  
Heating Degree Days 0 0  
Month to date heating degree days 0 0  
Since 1 June heating degree days 1 6  
Since 1 July heating degree days 0 0  
Cooling Degree Days 5 13  
Month to date cooling degree days 329 351  
Year to date cooling degree days 796 784  
Since 1 June cooling degree days 625 649  
Growing Degree Days 22 (Base 50)    
Moisture  
Dew Point 61 °F    
Average Humidity 69    
Maximum Humidity 93    
Minimum Humidity 45    
Precipitation  
Precipitation 0.58 in 0.11 in 1.62 in (1904)
Month to date precipitation 2.89 3.47  
Year to date precipitation 32.99 27.49  
Snow  
Snow 0.00 in 0.00 in - ()
Month to date snowfall 0.0 0.0  
Since 1 June snowfall 0.0 0.0  
Since 1 July snowfall 0.0 0.0  
Snow Depth 0.00 in    
Sea Level Pressure  
Sea Level Pressure 29.96 in    
Wind  
Wind Speed 7 mph (West)    
Max Wind Speed 17 mph    
Max Gust Speed 22 mph    
Visibility 6 miles    
Events Rain    
T = Trace of Precipitation, MM = Missing Value Source: NWS Daily Summary

Daily Weather History Graph

Daily Weather History Graph

Search for Another Location

Airport or City:

Trip Planner

Search our weather history database for the weather conditions in past years. The results will help you decide how hot, cold, wet, or windy it might be!

Date:

Astronomy

Jul. 27, 2013 Rise Set
Actual Time 5:49 AM CDT 8:03 PM CDT
Civil Twilight 5:19 AM CDT 8:33 PM CDT
Nautical Twilight 4:42 AM CDT 9:09 PM CDT
Astronomical Twilight 4:03 AM CDT 9:49 PM CDT
Moon 10:57 PM CDT (7/27) 11:22 AM CDT (7/27)
Length of Visible Light 15h 13m
Length of Day
14h 14m
Waning Gibbous, 70% of the Moon is Illuminated
Jul 27
Waning Gibbous
Jul 29
Last Quarter
Aug 6
New
Aug 14
First Quarter
Aug 20
Full

Hourly Weather History & Observations

Time (CDT) Temp. Heat Index Dew Point Humidity Pressure Visibility Wind Dir Wind Speed Gust Speed Precip Events Conditions
12:54 AM 69.1 °F - 66.0 °F 90% 29.97 in 10.0 mi SE 3.5 mph - 0.00 in Rain Light Rain
1:54 AM 69.1 °F - 66.0 °F 90% 29.95 in 9.0 mi SSE 5.8 mph - 0.00 in   Partly Cloudy
2:54 AM 68.0 °F - 64.0 °F 87% 29.95 in 10.0 mi SW 4.6 mph - 0.00 in Rain Light Rain
3:54 AM 69.1 °F - 63.0 °F 81% 29.94 in 10.0 mi SSW 4.6 mph - 0.00 in   Overcast
4:54 AM 66.0 °F - 63.0 °F 90% 29.95 in 6.0 mi West 5.8 mph - 0.00 in Rain Light Rain
5:54 AM 66.0 °F - 63.0 °F 90% 29.95 in 7.0 mi South 5.8 mph - 0.08 in Rain Light Rain
6:25 AM 66.2 °F - 64.4 °F 94% 29.97 in 6.0 mi WSW 3.5 mph - 0.00 in Rain Light Rain
6:45 AM 66.2 °F - 64.4 °F 94% 29.97 in 5.0 mi Calm Calm - 0.01 in Rain Light Rain
6:54 AM 66.9 °F - 64.9 °F 93% 29.97 in 3.0 mi Calm Calm - 0.01 in Rain Rain
7:01 AM 66.2 °F - 64.4 °F 94% 29.98 in 2.0 mi Calm Calm - 0.03 in Rain Light Rain
7:11 AM 66.2 °F - 64.4 °F 94% 29.97 in 3.0 mi Calm Calm - 0.04 in Rain Light Rain
7:39 AM 66.2 °F - 64.4 °F 94% 29.98 in 1.8 mi Calm Calm - 0.06 in Rain Heavy Rain
7:47 AM 66.2 °F - 64.4 °F 94% 29.98 in 1.0 mi WSW 3.5 mph - 0.12 in Rain Heavy Rain
7:54 AM 66.9 °F - 64.9 °F 93% 29.97 in 0.8 mi Calm Calm - 0.18 in Rain Heavy Rain
8:04 AM 66.2 °F - 64.4 °F 94% 29.98 in 1.5 mi WSW 4.6 mph - 0.05 in Rain Heavy Rain
8:13 AM 66.2 °F - 64.4 °F 94% 29.99 in 1.2 mi West 10.4 mph - 0.10 in Rain Heavy Rain
8:17 AM 66.2 °F - 64.4 °F 94% 29.99 in 1.5 mi West 10.4 mph - 0.12 in Rain Heavy Rain
8:29 AM 64.4 °F - 62.6 °F 94% 29.99 in 2.0 mi West 6.9 mph - 0.18 in Rain Heavy Rain
8:44 AM 64.4 °F - 62.6 °F 94% 29.99 in 2.0 mi SW 8.1 mph - 0.23 in Rain Heavy Rain
8:52 AM 66.2 °F - 62.6 °F 88% 29.99 in 1.5 mi WSW 8.1 mph - 0.26 in Rain Heavy Rain
8:54 AM 64.9 °F - 63.0 °F 93% 29.98 in 1.5 mi WSW 6.9 mph - 0.28 in Rain Heavy Rain
9:00 AM 64.4 °F - 64.4 °F 100% 29.99 in 2.0 mi West 4.6 mph - 0.01 in Rain Rain
9:09 AM 64.4 °F - 62.6 °F 94% 29.98 in 5.0 mi NW 4.6 mph - 0.02 in Rain Light Rain
9:54 AM 66.9 °F - 64.0 °F 90% 29.96 in 4.0 mi Calm Calm - 0.03 in Rain Light Rain
10:54 AM 71.1 °F - 66.0 °F 84% 29.96 in 10.0 mi NW 6.9 mph - 0.00 in   Mostly Cloudy
11:54 AM 75.0 °F - 64.0 °F 69% 29.95 in 10.0 mi West 8.1 mph - N/A   Mostly Cloudy
12:54 PM 78.1 °F - 61.0 °F 56% 29.94 in 10.0 mi WNW 8.1 mph - N/A   Mostly Cloudy
1:54 PM 79.0 °F - 62.1 °F 56% 29.92 in 10.0 mi WNW 8.1 mph - N/A   Mostly Cloudy
2:54 PM 79.0 °F - 60.1 °F 52% 29.91 in 10.0 mi West 12.7 mph - N/A   Scattered Clouds
3:54 PM 80.1 °F 80.7 °F 59.0 °F 48% 29.91 in 10.0 mi NNW 10.4 mph - N/A   Mostly Cloudy
4:54 PM 79.0 °F - 55.9 °F 45% 29.91 in 10.0 mi West 13.8 mph 20.7 mph N/A   Partly Cloudy
5:54 PM 77.0 °F - 57.0 °F 50% 29.90 in 10.0 mi NW 11.5 mph - N/A   Clear
6:54 PM 73.9 °F - 55.0 °F 52% 29.92 in 10.0 mi NW 9.2 mph - N/A   Clear
7:54 PM 71.1 °F - 53.1 °F 53% 29.94 in 10.0 mi NNW 10.4 mph - N/A   Clear
8:54 PM 68.0 °F - 52.0 °F 56% 29.96 in 10.0 mi NNW 6.9 mph - N/A   Clear
9:54 PM 64.9 °F - 51.1 °F 61% 29.98 in 10.0 mi NNW 5.8 mph - N/A   Clear
10:54 PM 64.0 °F - 51.1 °F 63% 29.99 in 10.0 mi North 4.6 mph - N/A   Clear
11:54 PM 61.0 °F - 51.1 °F 70% 30.00 in 10.0 mi North 3.5 mph - N/A   Clear